Wind_Speed
69 70 68 68 69 72 73 73 73 72 72 72 73 75 78 81 83 83 82 83 81 79 77 76 74 71 70 73 81 91 95 93 85 80 68 71 70 70 71 63 62 65 62
71 75 69 71 78 79 81 81 82 82 82 83 83 85 85 86 86 86 87 86 83 79 74 70 69 68 69 70 73 82 97 101 99 92 86 82 79 80 74 68 71 73 69
76 74 78 86 86 86 87 86 86 85 84 82 81 80 80 81 82 82 83 85 82 79 71 62 59 59 59 63 67 78 87 102 102 102 98 90 81 77 80 78 75 75 75
86 86 88 91 90 86 85 84 81 79 76 77 77 76 77 79 80 82 84 85 84 81 76 68 63 58 57 61 64 68 82 91 99 100 98 89 87 83 78 75 78 78 78
89 87 84 80 80 75 71 68 67 68 71 73 75 76 79 81 83 85 87 87 85 85 81 74 65 60 59 59 63 64 72 81 91 90 97 87 84 81 83 81 78 75 69
88 81 74 72 72 70 67 68 69 71 74 78 79 81 84 85 86 86 87 86 85 83 81 74 67 63 60 60 61 64 69 72 83 87 89 95 91 87 85 80 80 73 71
82 76 71 71 70 67 71 74 74 76 78 81 84 86 88 89 89 89 89 86 83 80 77 73 67 62 58 58 61 63 68 72 76 82 87 89 89 84 82 78 75 63 62
77 73 73 74 73 76 79 79 78 79 80 84 88 90 89 89 87 86 84 81 77 73 69 65 62 58 56 58 60 64 68 70 71 78 83 80 89 87 83 83 78 75 70
75 79 78 77 81 81 82 83 84 83 86 88 89 89 87 86 84 80 75 71 70 68 65 61 59 57 56 56 61 65 67 67 69 75 82 86 87 94 93 88 79 80 75
82 82 83 85 85 86 87 88 88 88 90 91 90 88 84 81 75 69 65 64 64 65 62 56 53 50 52 53 56 60 62 65 65 67 73 82 94 92 88 92 89 79 74
84 85 87 87 89 89 90 92 93 93 93 91 84 80 76 70 65 63 63 63 61 62 56 47 51 48 48 50 53 54 59 60 59 62 72 81 86 90 89 83 85 80 76
87 88 88 91 90 93 95 96 96 94 89 83 77 71 67 63 61 60 61 59 56 56 54 50 49 49 46 46 51 52 53 55 56 59 72 85 84 85 88 86 83 77 77
89 87 89 91 92 97 99 99 95 88 82 76 68 64 61 62 60 59 58 56 50 48 45 45 44 47 43 43 45 50 52 54 56 58 63 77 83 85 83 80 76 77 68
91 90 92 96 97 99 97 92 86 79 71 66 64 62 61 59 56 51 47 46 43 40 37 39 40 40 39 40 42 46 50 52 53 55 59 63 76 84 85 83 77 75 69
88 92 94 94 93 90 85 79 72 68 64 61 60 55 52 51 47 42 40 39 35 33 30 29 34 35 36 38 39 42 44 48 51 54 56 59 60 67 77 77 75 77 76
94 91 89 85 80 75 70 67 65 61 59 55 51 50 49 47 44 38 35 32 30 28 26 22 26 31 33 36 37 38 39 39 40 43 48 53 58 58 60 70 81 76 74
86 79 74 69 64 61 61 59 59 58 51 47 43 42 42 43 41 36 30 29 28 26 24 21 21 25 26 28 29 31 32 33 37 42 47 53 55 57 61 60 71 77 75
67 61 57 56 56 55 53 51 48 44 41 35 32 34 35 35 34 31 27 29 26 25 24 21 21 22 24 24 25 26 27 29 32 37 43 51 53 54 55 55 61 70 83
50 50 50 48 46 44 41 37 34 33 32 29 26 26 27 27 27 26 24 25 25 24 24 22 22 21 21 21 21 21 23 25 28 30 34 40 46 50 50 51 54 59 67
41 41 39 37 33 32 30 28 26 24 23 22 20 19 20 20 21 20 21 22 23 22 22 22 23 22 20 21 20 19 19 20 22 25 28 32 35 40 43 45 48 52 57
33 29 26 23 21 22 21 20 18 17 17 17 15 14 15 16 18 19 19 20 22 23 23 24 26 25 25 24 24 22 22 21 21 23 23 24 26 30 34 39 42 46 50
21 17 15 15 16 17 18 17 16 16 17 17 14 11 10 11 13 17 18 19 21 24 25 27 27 28 29 28 28 27 26 25 24 23 23 25 27 29 33 35 36 39 44
14 12 13 15 17 18 20 19 18 16 16 16 13 10 8 7 9 12 16 19 20 24 26 27 28 29 31 30 30 29 29 27 27 26 26 29 32 35 38 40 40 41 41
13 11 13 16 17 19 20 19 18 17 16 16 14 11 8 7 7 9 12 14 17 21 24 26 26 28 30 30 30 29 28 25 25 26 29 32 36 37 39 42 43 44 44
14 13 13 15 17 19 20 20 17 16 15 14 13 11 9 8 7 6 7 10 14 16 19 23 24 26 29 28 29 29 27 21 20 22 24 26 26 27 30 34 40 43 44
14 13 12 14 16 18 19 19 16 14 13 12 12 10 9 7 7 5 4 5 9 12 16 20 23 24 26 25 28 27 23 18 17 18 18 16 16 18 23 30 36 40 42
Wind_Direction
290 291 291 292 293 293 294 293 292 291 290 288 285 283 284 286 286 285 283 282 281 280 278 276 273 267 261 255 244 240 238 236 233 243 236 240 241 242 249 259 264 268 274
289 287 286 294 295 294 293 292 291 289 288 287 285 285 285 285 286 286 286 284 283 282 280 278 274 269 265 255 247 240 237 237 238 239 242 241 244 246 247 253 254 262 268
288 290 289 293 293 292 291 290 289 288 287 287 288 288 287 287 287 287 287 287 287 287 285 281 276 266 261 257 252 241 234 236 239 240 244 243 246 251 250 252 255 257 266
287 289 292 293 293 292 290 289 288 288 289 289 288 287 286 286 286 286 286 287 289 290 288 285 280 273 261 258 253 246 236 236 236 240 242 243 244 244 245 246 251 251 265
287 289 291 292 291 290 289 290 291 291 289 287 286 286 285 285 286 285 286 287 288 287 287 284 279 271 266 258 252 246 241 239 235 236 238 235 234 237 242 244 251 256 257
288 289 291 289 288 286 289 290 291 292 291 289 288 287 286 286 287 287 287 287 286 284 283 281 277 272 266 257 252 247 238 239 239 237 235 238 233 234 237 244 248 249 251
288 289 288 289 288 287 291 291 291 291 291 290 289 289 289 289 289 289 288 287 284 282 280 278 274 270 263 257 252 246 239 237 240 238 239 235 231 233 236 239 241 242 245
283 286 285 286 290 288 289 289 291 291 292 291 290 290 291 291 291 291 288 286 282 279 276 275 272 267 261 255 249 245 243 239 237 235 240 237 232 231 231 235 238 239 240
288 286 288 290 289 290 290 292 292 293 293 293 293 294 294 294 292 290 286 282 278 275 275 271 270 267 261 254 247 243 241 240 238 231 231 234 233 232 228 231 236 237 241
284 287 289 291 291 291 291 292 294 294 294 295 296 296 295 293 291 287 283 278 274 274 275 275 273 269 260 254 246 242 240 237 236 236 233 230 228 229 234 236 234 234 235
287 288 289 290 290 291 293 294 294 294 296 296 296 296 295 292 289 285 283 280 277 276 279 276 272 269 261 255 246 239 237 235 234 233 230 227 228 228 224 226 232 232 235
284 286 288 289 290 292 293 294 294 295 297 297 297 294 291 288 285 283 282 280 278 275 274 271 265 263 257 251 247 240 236 236 234 234 227 227 228 231 230 228 228 231 234
284 284 287 289 290 290 291 293 295 296 297 296 293 292 290 288 285 284 282 279 278 275 271 267 255 252 252 249 245 241 239 238 235 233 232 231 230 229 231 230 232 231 228
286 288 288 289 289 290 292 295 297 296 294 293 292 292 290 286 284 281 277 275 275 272 268 263 255 246 247 247 243 242 241 238 237 235 233 234 230 232 232 231 230 229 230
289 291 291 290 290 293 295 295 294 292 290 289 288 285 282 280 278 277 272 271 271 269 263 258 254 246 244 243 241 240 240 240 238 240 238 234 234 232 230 229 231 234 232
294 293 291 292 295 295 294 292 292 290 290 289 286 282 279 274 274 272 269 270 268 266 264 254 249 247 243 242 243 244 242 239 236 230 230 234 234 232 231 230 231 231 238
291 292 293 294 293 292 293 295 296 296 293 292 287 279 273 273 272 270 266 265 265 263 260 253 244 242 240 237 237 237 237 236 233 227 223 223 225 225 227 226 228 229 230
292 292 292 294 296 297 297 297 296 295 295 294 287 281 273 267 266 268 264 259 258 255 255 251 246 243 242 238 231 229 227 226 227 225 221 222 224 225 223 224 222 223 226
291 293 296 297 298 300 301 302 302 302 302 299 293 283 276 269 264 262 256 254 252 248 246 242 240 240 242 241 234 227 222 218 218 219 218 220 222 224 223 223 221 220 222
297 298 300 303 305 308 310 311 310 309 309 308 300 289 278 268 260 257 253 250 249 243 239 231 228 227 228 229 225 220 217 217 215 216 215 215 218 221 224 227 227 224 221
301 300 301 307 317 318 316 313 314 319 324 321 313 300 285 271 261 256 249 242 243 240 236 229 223 219 218 217 214 212 210 209 212 211 213 219 220 221 223 224 222 221 221
296 301 309 318 322 327 326 327 335 339 340 332 323 314 300 281 265 256 252 245 239 239 232 228 222 218 213 214 216 214 212 213 217 216 219 224 224 225 226 224 222 221 222
293 304 316 325 331 333 332 331 331 333 334 329 323 316 312 298 277 265 258 254 248 242 240 233 226 220 217 214 214 213 214 212 218 224 235 240 241 241 238 236 230 223 222
288 303 317 327 328 330 328 325 325 324 324 324 324 325 325 318 303 282 268 259 253 245 241 240 230 223 220 216 214 214 210 213 217 233 245 251 253 250 244 236 232 226 222
284 298 313 322 327 332 331 329 323 319 318 319 320 322 326 324 318 306 286 268 256 247 237 234 233 223 216 215 213 209 205 210 231 254 263 262 254 242 229 219 215 213 212
276 286 301 315 328 338 343 341 335 329 323 320 321 323 324 323 322 316 302 274 258 246 230 226 225 218 214 212 207 200 198 212 243 262 265 257 244 225 213 205 201 201 203
Height
10727 10725 10724 10721 10719 10716 10712 10709 10705 10700 10696 10693 10691 10687 10684 10681 10678 10674 10671 10668 10668 10667 10669 10667 10666 10670 10673 10676 10682 10688 10696 10704 10709 10715 10723 10729 10725 10727 10726 10726 10725 10722 10725
10714 10709 10705 10702 10699 10697 10693 10689 10685 10680 10676 10672 10669 10664 10660 10656 10652 10646 10641 10638 10641 10638 10640 10639 10638 10638 10641 10646 10651 10656 10666 10675 10684 10690 10702 10708 10707 10708 10716 10716 10711 10710 10715
10694 10691 10685 10685 10680 10677 10671 10666 10661 10656 10652 10647 10644 10639 10634 10630 10627 10622 10615 10609 10608 10609 10610 10614 10612 10614 10614 10617 10620 10627 10637 10643 10656 10666 10674 10684 10689 10690 10698 10701 10702 10702 10706
10679 10675 10667 10659 10656 10654 10649 10644 10639 10634 10629 10624 10621 10616 10611 10607 10604 10597 10590 10585 10582 10581 10581 10584 10586 10588 10591 10592 10596 10601 10611 10615 10627 10638 10646 10656 10667 10670 10677 10683 10687 10695 10696
10657 10657 10656 10646 10638 10631 10627 10624 10619 10613 10608 10602 10598 10593 10588 10583 10580 10573 10566 10564 10560 10556 10554 10556 10560 10562 10565 10567 10571 10578 10584 10590 10600 10608 10619 10632 10642 10649 10658 10667 10674 10681 10684
10630 10631 10632 10625 10620 10615 10612 10607 10601 10594 10586 10579 10577 10572 10564 10559 10554 10549 10542 10539 10534 10531 10529 10530 10533 10537 10540 10544 10548 10553 10562 10567 10573 10581 10594 10606 10618 10630 10641 10649 10658 10663 10670
10606 10607 10609 10605 10599 10596 10591 10587 10582 10575 10565 10556 10551 10546 10540 10533 10528 10521 10514 10511 10506 10505 10503 10504 10508 10512 10517 10521 10524 10529 10535 10543 10550 10559 10571 10584 10597 10610 10618 10630 10638 10646 10653
10590 10591 10587 10584 10581 10576 10572 10566 10560 10553 10545 10535 10527 10521 10515 10507 10501 10495 10487 10481 10476 10477 10477 10479 10482 10486 10492 10496 10501 10504 10511 10521 10530 10541 10550 10562 10574 10587 10596 10605 10615 10624 10634
10571 10565 10565 10562 10556 10552 10548 10541 10534 10528 10519 10511 10505 10497 10489 10481 10473 10467 10460 10456 10451 10450 10452 10456 10458 10461 10465 10470 10475 10480 10488 10497 10508 10518 10525 10536 10550 10559 10571 10583 10593 10607 10619
10549 10547 10544 10538 10532 10528 10523 10514 10509 10502 10494 10487 10479 10470 10462 10455 10446 10441 10436 10433 10431 10427 10430 10436 10436 10439 10440 10446 10455 10461 10469 10476 10486 10495 10503 10513 10526 10540 10553 10565 10573 10586 10602
10532 10528 10522 10518 10511 10504 10497 10490 10483 10477 10470 10462 10456 10446 10437 10430 10424 10419 10414 10413 10412 10409 10410 10417 10417 10418 10422 10426 10433 10442 10449 10458 10468 10476 10483 10493 10504 10517 10532 10545 10554 10570 10582
10512 10507 10501 10495 10488 10478 10472 10466 10459 10452 10446 10438 10431 10423 10415 10408 10404 10400 10395 10394 10394 10392 10392 10395 10400 10400 10403 10409 10417 10425 10434 10442 10450 10458 10467 10475 10486 10496 10508 10524 10539 10552 10563
10491 10486 10478 10471 10465 10457 10450 10443 10436 10428 10422 10415 10408 10401 10395 10388 10385 10383 10378 10375 10375 10374 10375 10375 10379 10382 10387 10394 10403 10410 10418 10426 10434 10441 10449 10458 10467 10478 10492 10506 10519 10533 10545
10469 10463 10456 10449 10442 10434 10427 10419 10412 10404 10398 10392 10387 10382 10377 10370 10367 10366 10362 10360 10360 10360 10361 10360 10363 10368 10374 10379 10386 10394 10401 10409 10416 10425 10432 10441 10449 10459 10475 10488 10499 10513 10528
10449 10441 10433 10425 10419 10412 10404 10396 10389 10382 10378 10374 10368 10365 10359 10353 10351 10351 10348 10347 10347 10348 10348 10350 10351 10356 10361 10365 10371 10378 10385 10392 10401 10409 10417 10425 10435 10443 10455 10474 10484 10497 10512
10423 10416 10409 10403 10396 10390 10384 10375 10367 10364 10358 10355 10351 10347 10341 10338 10335 10335 10336 10336 10337 10337 10338 10340 10342 10344 10349 10353 10358 10364 10371 10378 10385 10393 10401 10408 10418 10430 10440 10458 10471 10482 10490
10405 10397 10390 10384 10378 10372 10365 10358 10351 10341 10341 10337 10333 10329 10326 10322 10324 10324 10325 10325 10325 10326 10328 10330 10334 10335 10339 10344 10349 10354 10359 10364 10369 10375 10383 10391 10401 10412 10425 10438 10451 10466 10477
10388 10381 10374 10368 10362 10356 10350 10343 10337 10330 10324 10322 10320 10315 10312 10312 10312 10315 10315 10314 10317 10318 10319 10322 10325 10328 10332 10337 10342 10346 10351 10355 10359 10365 10372 10379 10387 10397 10409 10421 10434 10444 10458
10374 10367 10361 10356 10350 10343 10336 10330 10324 10319 10314 10310 10307 10305 10302 10303 10304 10305 10307 10306 10308 10311 10313 10316 10318 10322 10326 10330 10334 10338 10343 10347 10352 10358 10364 10371 10378 10386 10396 10405 10415 10428 10441
10362 10356 10350 10344 10339 10333 10327 10322 10317 10312 10308 10304 10300 10298 10296 10296 10296 10298 10299 10300 10302 10305 10307 10311 10314 10318 10322 10326 10329 10333 10338 10342 10347 10352 10358 10364 10369 10377 10384 10392 10401 10411 10422
10351 10347 10342 10337 10332 10327 10322 10317 10312 10308 10304 10300 10296 10294 10292 10291 10292 10292 10293 10294 10295 10298 10301 10305 10309 10313 10318 10322 10325 10329 10333 10338 10342 10347 10353 10357 10362 10368 10374 10382 10390 10398 10407
10344 10340 10336 10332 10327 10322 10318 10313 10308 10304 10300 10297 10294 10291 10289 10288 10288 10288 10288 10289 10290 10291 10294 10298 10302 10306 10311 10316 10321 10325 10329 10333 10338 10343 10347 10352 10357 10362 10366 10372 10379 10386 10394
10337 10334 10330 10327 10323 10318 10314 10309 10305 10301 10298 10295 10293 10290 10287 10286 10285 10284 10284 10284 10285 10286 10287 10290 10295 10300 10304 10309 10314 10319 10324 10329 10333 10337 10341 10344 10348 10351 10356 10360 10367 10374 10381
10332 10328 10325 10322 10319 10315 10311 10307 10303 10299 10296 10293 10290 10287 10285 10284 10282 10281 10281 10280 10280 10282 10283 10285 10289 10293 10297 10303 10308 10314 10319 10324 10329 10332 10334 10334 10334 10335 10338 10344 10351 10361 10370
10326 10323 10321 10319 10316 10312 10308 10303 10299 10296 10293 10290 10287 10285 10282 10280 10279 10278 10277 10276 10276 10276 10277 10279 10282 10287 10291 10297 10303 10308 10314 10319 10322 10323 10323 10321 10321 10322 10325 10331 10338 10348 10358
10320 10319 10318 10316 10313 10309 10305 10301 10297 10294 10290 10288 10285 10283 10280 10278 10277 10276 10275 10273 10272 10272 10273 10275 10277 10281 10287 10292 10298 10303 10309 10313 10315 10316 10315 10313 10313 10315 10319 10324 10331 10340 10350